Weather History for Sydney, NW

Change the Weather History Date:

Friday, August 2, 2013

  Actual Average Record
Temperature  
Mean Temperature 58 °F -  
Max Temperature 69 °F 65 °F 71 °F (2002)
Min Temperature 47 °F 46 °F 41 °F (1998)
Degree Days  
Heating Degree Days 7    
Growing Degree Days 8 (Base 50)    
Moisture  
Dew Point 40 °F    
Average Humidity 55    
Maximum Humidity 87    
Minimum Humidity 16    
Precipitation  
Precipitation 0.00 in 0.12 in - ()
Sea Level Pressure  
Sea Level Pressure 29.99 in    
Wind  
Wind Speed 7 mph ()    
Max Wind Speed 17 mph    
Max Gust Speed -    
Visibility 11.1 miles    
Events      
Averages and records for this station are not official NWS values.
T = Trace of Precipitation, MM = Missing Value Source: Averaged Metar Reports

Daily Weather History Graph

Daily Weather History Graph

Search for Another Location

Airport:

Trip Planner

Search our weather history database for the weather conditions in past years. The results will help you decide how hot, cold, wet, or windy it might be!

Date:

Astronomy

Aug. 02, 2013 Rise Set
Actual Time 6:47 AM EST 5:16 PM EST
Civil Twilight 6:20 AM EST 5:42 PM EST
Nautical Twilight 5:50 AM EST 6:12 PM EST
Astronomical Twilight 5:21 AM EST 6:42 PM EST
Moon 2:55 AM EST (8/2) 1:21 PM EST (8/2)
Length of Visible Light 11h 21m
Length of Day
10h 29m
Waning Crescent, 20% of the Moon is Illuminated
Aug 2
Waning Crescent
Aug 7
New
Aug 14
First Quarter
Aug 21
Full
Aug 28
Last Quarter

Hourly Weather History & Observations

Time (EST) Temp. Dew Point Humidity Pressure Visibility Wind Dir Wind Speed Gust Speed Precip Events Conditions
12:00 AM 51 °F 46 °F 79% 30.11 in 12 mi WNW 2.3 mph - -   Haze
12:00 AM 51.8 °F 46.4 °F 82% 30.09 in - WNW 2.3 mph - N/A   Clear
12:30 AM 50.0 °F 46.4 °F 87% 30.09 in - NNW 5.8 mph - N/A   Clear
1:00 AM 50 °F 46 °F 79% 30.11 in - North 6.9 mph - -  
1:00 AM 50.0 °F 46.4 °F 87% 30.09 in - North 6.9 mph - N/A   Clear
1:30 AM 48.2 °F 44.6 °F 87% 30.09 in - North 8.1 mph - N/A   Clear
2:00 AM 48.2 °F 44.6 °F 87% 30.09 in - NNW 8.1 mph - N/A   Clear
2:30 AM 48.2 °F 44.6 °F 87% 30.06 in - North 8.1 mph - N/A   Clear
3:00 AM 48 °F 44 °F 82% 30.08 in 12 mi North 8.1 mph - -   Haze
3:00 AM 48.2 °F 44.6 °F 87% 30.06 in - North 8.1 mph - N/A   Clear
3:30 AM 48.2 °F 44.6 °F 87% 30.06 in - North 8.1 mph - N/A   Clear
4:00 AM 49 °F 44 °F 78% 30.07 in - NNW 8.1 mph - -  
4:00 AM 48.2 °F 44.6 °F 87% 30.06 in - NNW 8.1 mph - N/A   Clear
4:30 AM 48.2 °F 44.6 °F 87% 30.06 in 6.2 mi NNW 6.9 mph - N/A   Mostly Cloudy
5:00 AM 50.0 °F 44.6 °F 82% 30.04 in 6.2 mi NNW 6.9 mph - N/A   Mostly Cloudy
5:30 AM 50.0 °F 44.6 °F 82% 30.04 in 6.2 mi North 4.6 mph - N/A   Mostly Cloudy
6:00 AM 49 °F 44 °F 79% 30.06 in 11 mi NW 8.1 mph - -   Haze
6:00 AM 50.0 °F 44.6 °F 82% 30.04 in 6.2 mi NW 8.1 mph - N/A   Mostly Cloudy
6:30 AM 50.0 °F 44.6 °F 82% 30.04 in - WNW 10.4 mph - N/A   Clear
7:00 AM 51 °F 44 °F 70% 30.06 in - NW 6.9 mph - -  
7:00 AM 51.8 °F 44.6 °F 76% 30.04 in - NW 6.9 mph - N/A   Clear
7:30 AM 50.0 °F 42.8 °F 76% 30.06 in - NW 9.2 mph - N/A   Clear
8:00 AM 53.6 °F 42.8 °F 67% 30.06 in - NW 6.9 mph - N/A   Clear
8:30 AM 53.6 °F 44.6 °F 72% 30.06 in - NW 10.4 mph - N/A   Clear
9:00 AM 53 °F 44 °F 64% 30.07 in 12 mi WNW 9.2 mph - -   Haze
9:00 AM 53.6 °F 44.6 °F 72% 30.06 in - WNW 9.2 mph - N/A   Clear
9:30 AM 53.6 °F 44.6 °F 72% 30.04 in - NW 8.1 mph - N/A   Clear
10:00 AM 55 °F 44 °F 57% 30.06 in - NW 9.2 mph - -  
10:00 AM 55.4 °F 44.6 °F 67% 30.04 in - NW 9.2 mph - N/A   Clear
10:30 AM 59.0 °F 44.6 °F 59% 30.04 in - NW 9.2 mph - N/A   Clear
11:00 AM 59.0 °F 46.4 °F 63% 30.01 in - NW 9.2 mph - N/A   Clear
11:30 AM 60.8 °F 46.4 °F 59% 29.98 in - NW 6.9 mph - N/A   Clear
12:00 PM 65 °F 45 °F 37% 29.98 in 12 mi West 6.9 mph - -   Partly Cloudy
12:00 PM 64.4 °F 44.6 °F 49% 29.98 in - West 6.9 mph - N/A   Clear
12:30 PM 64.4 °F 44.6 °F 49% 29.95 in - WNW 4.6 mph - N/A   Clear
1:00 PM 67 °F 42 °F 29% 29.94 in - NW 8.1 mph - -  
1:00 PM 66.2 °F 42.8 °F 43% 29.92 in - NW 8.1 mph - N/A   Clear
1:30 PM 66.2 °F 37.4 °F 35% 29.92 in - West 10.4 mph - N/A   Clear
2:00 PM 64.4 °F 39.2 °F 40% 29.92 in - West 13.8 mph - N/A   Clear
2:30 PM 69.8 °F 39.2 °F 33% 29.92 in - WNW 12.7 mph - N/A   Clear
3:00 PM 69 °F 33 °F 16% 29.91 in 19 mi West 15.0 mph - -   Partly Cloudy
3:00 PM 69.8 °F 33.8 °F 27% 29.89 in - West 15.0 mph - N/A   Clear
3:30 PM 68.0 °F 33.8 °F 28% 29.89 in - WNW 10.4 mph - N/A   Clear
4:00 PM 68 °F 34 °F 17% 29.91 in - WNW 10.4 mph - -  
4:00 PM 68.0 °F 33.8 °F 28% 29.89 in - WNW 10.4 mph - N/A   Clear
4:30 PM 68.0 °F 32.0 °F 26% 29.89 in - NW 11.5 mph - N/A   Clear
5:00 PM 68.0 °F 33.8 °F 28% 29.89 in - NW 8.1 mph - N/A   Clear
5:30 PM 68.0 °F 33.8 °F 28% 29.89 in - NNW 8.1 mph - N/A   Clear
6:00 PM 66 °F 34 °F 20% 29.91 in 19 mi NNW 9.2 mph - -   Partly Cloudy
6:00 PM 66.2 °F 33.8 °F 30% 29.89 in - NNW 9.2 mph - N/A   Clear
6:30 PM 64.4 °F 30.2 °F 28% 29.89 in - NW 13.8 mph - N/A   Clear
7:00 PM 65 °F 30 °F 16% 29.92 in - WNW 15.0 mph - -  
7:00 PM 64.4 °F 30.2 °F 28% 29.92 in - WNW 15.0 mph - N/A   Clear
7:30 PM 64.4 °F 30.2 °F 28% 29.92 in - WNW 11.5 mph - N/A   Clear
8:00 PM 64.4 °F 32.0 °F 30% 29.92 in - WNW 17.3 mph - N/A   Clear
9:00 PM 60 °F 35 °F 28% 29.96 in 25 mi West 9.2 mph - -   Partly Cloudy
9:00 PM 59.0 °F 35.6 °F 42% 29.95 in - West 9.2 mph - N/A   Clear
9:30 PM 59.0 °F 35.6 °F 42% 29.95 in - WNW 11.5 mph - N/A   Clear
10:00 PM 60 °F 35 °F 28% 29.96 in - NW 10.4 mph - -  
10:00 PM 60.8 °F 35.6 °F 39% 29.95 in - NW 10.4 mph - N/A   Clear
10:30 PM 59.0 °F 35.6 °F 42% 29.95 in - NW 11.5 mph - N/A   Clear
11:00 PM 59.0 °F 35.6 °F 42% 29.95 in - NW 10.4 mph - N/A   Clear
11:30 PM 57.2 °F 35.6 °F 44% 29.95 in - NNW 11.5 mph - N/A   Clear